CT1AKV-10 Weather Reports


time (UTC)temp
C
wind
direction
speed
KPH
gust
KPH
rain 1hr
cm
rain 24hr
cm
rain mn
cm
humidity
%
barometer
mb
20260508133003 20 23 3.2 14.5 0.00 0.00 0.00 55 1008.2
20260508131503 21 39 3.2 11.3 0.00 0.00 0.00 53 1008.1
20260508130003 19 336 3.2 17.7 0.00 0.00 0.00 55 1008.7
20260508124503 19 74 1.6 11.3 0.00 0.00 0.00 56 1008.6
20260508123003 18 1 1.6 9.7 0.00 0.00 0.00 55 1008.9
20260508121503 19 7 3.2 9.7 0.00 0.00 0.00 56 1008.9
20260508120003 19 339 3.2 14.5 0.00 0.00 0.00 59 1009.4
20260508114503 18 359 4.8 12.9 0.00 0.00 0.00 59 1009.4
20260508113004 20 29 4.8 17.7 0.00 0.00 0.00 56 1009.7
20260508111503 20 143 3.2 12.9 0.00 0.00 0.00 56 1009.9
20260508110003 19 10 3.2 12.9 0.00 0.00 0.00 56 1009.9
20260508104503 19 31 3.2 11.3 0.00 0.00 0.00 58 1010.2
20260508103003 18 16 3.2 9.7 0.00 0.00 0.00 60 1010.2
20260508101503 18 41 1.6 9.7 0.00 0.00 0.00 61 1010.2
20260508100004 17 26 1.6 11.3 0.00 0.00 0.00 62 1010.4
20260508094503 17 12 3.2 9.7 0.00 0.00 0.00 65 1010.4
20260508093003 16 30 3.2 11.3 0.00 0.00 0.00 69 1010.5
20260508091503 16 54 3.2 11.3 0.00 0.00 0.00 72 1010.5
20260508090003 16 11 1.6 6.4 0.00 0.00 0.00 75 1010.5
20260508084503 15 335 3.2 11.3 0.00 0.00 0.00 80 1010.4
20260508083003 15 343 3.2 9.7 0.00 0.00 0.00 81 1010.5
20260508081503 14 360 1.6 6.4 0.00 0.00 0.00 87 1010.6
20260508080004 13 24 1.6 9.7 0.00 0.00 0.00 92 1010.5
20260508074503 13 345 0.0 6.4 0.00 0.00 0.00 93 1010.5
20260508073003 12 0 0.0 0.0 0.00 0.00 0.00 93 1010.4
20260508071503 11 58 0.0 3.2 0.00 0.00 0.00 91 1010.4
20260508070003 12 36 0.0 6.4 0.00 0.00 0.00 88 1010.3
20260508064503 12 0 0.0 0.0 0.00 0.00 0.00 87 1010.2
20260508063003 11 0 0.0 0.0 0.00 0.00 0.00 87 1009.8
20260508061503 11 0 0.0 0.0 0.00 0.00 0.00 87 1009.8
20260508060003 11 0 0.0 0.0 0.00 0.00 0.00 86 1009.3
20260508054503 11 0 0.0 0.0 0.00 0.00 0.00 86 1009.4
20260508053003 11 0 0.0 0.0 0.00 0.00 0.00 86 1009.2
20260508051503 11 0 0.0 0.0 0.00 0.00 0.00 85 1008.8
20260508050003 11 67 0.0 3.2 0.00 0.00 0.00 84 1009.2
20260508044503 11 0 0.0 3.2 0.00 0.00 0.00 83 1009.2
20260508043003 12 45 0.0 3.2 0.00 0.00 0.00 83 1009.2
20260508041504 12 79 0.0 3.2 0.00 0.00 0.00 83 1009.2
20260508040003 12 45 0.0 3.2 0.00 0.00 0.00 82 1009.2
20260508034503 12 76 0.0 3.2 0.00 0.00 0.00 82 1008.9
20260508033003 12 0 0.0 0.0 0.00 0.00 0.00 82 1009.1
20260508031503 12 0 0.0 3.2 0.00 0.00 0.00 83 1009.3
20260508030003 12 67 0.0 3.2 0.00 0.00 0.00 83 1009.3
20260508024503 12 0 0.0 0.0 0.00 0.00 0.00 83 1009.2
20260508023003 12 0 0.0 0.0 0.00 0.00 0.00 82 1009.7
20260508021503 12 0 0.0 3.2 0.00 0.00 0.00 82 1009.5
20260508020003 12 85 0.0 3.2 0.00 0.00 0.00 82 1009.3
20260508014503 12 100 1.6 3.2 0.00 0.00 0.00 81 1009.9
20260508013003 12 97 1.6 6.4 0.00 0.00 0.00 81 1009.9
20260508011503 12 84 1.6 6.4 0.00 0.00 0.00 82 1009.9
20260508010003 12 91 1.6 3.2 0.00 0.00 0.00 82 1010.1
20260508004503 12 97 0.0 6.4 0.00 0.00 0.00 82 1010.0
20260508003003 12 0 0.0 0.0 0.00 0.00 0.00 82 1009.9
20260508001503 12 0 0.0 0.0 0.00 0.00 0.00 81 1010.3
20260508000003 12 0 0.0 0.0 0.00 0.00 0.00 81 1010.4
20260507234503 12 60 0.0 3.2 0.00 0.00 0.00 82 1010.5
20260507233003 12 0 0.0 0.0 0.00 0.00 0.00 81 1010.5
20260507231503 12 0 0.0 0.0 0.00 0.00 0.00 81 1010.5
20260507230004 12 0 0.0 0.0 0.00 0.00 0.00 80 1010.5
20260507224504 13 0 0.0 0.0 0.00 0.00 0.00 80 1010.9
20260507223003 13 0 0.0 3.2 0.00 0.00 0.00 79 1011.0
20260507221503 13 105 0.0 3.2 0.00 0.00 0.00 79 1011.1
20260507220003 13 106 0.0 3.2 0.00 0.00 0.00 79 1011.2
20260507214503 13 112 1.6 6.4 0.00 0.00 0.00 78 1011.3
20260507213003 13 107 1.6 6.4 0.00 0.00 0.00 78 1011.5
20260507211503 13 103 3.2 6.4 0.00 0.00 0.00 78 1011.5
20260507210004 13 123 3.2 9.7 0.00 0.00 0.00 78 1011.3
20260507204503 13 105 4.8 11.3 0.00 0.00 0.00 77 1011.2
20260507203003 13 119 3.2 11.3 0.00 0.00 0.00 77 1011.1
20260507201503 14 122 3.2 9.7 0.00 0.00 0.00 77 1010.7
20260507200003 14 135 4.8 14.5 0.00 0.00 0.00 76 1010.7
20260507194503 14 117 6.4 12.9 0.00 0.00 0.00 75 1010.4
20260507193003 15 117 6.4 12.9 0.00 0.00 0.00 73 1010.3
20260507191503 15 101 6.4 14.5 0.00 0.00 0.00 72 1010.1
20260507190004 15 139 6.4 17.7 0.00 0.00 0.00 70 1010.0
20260507184503 16 100 6.4 12.9 0.00 0.00 0.00 69 1010.0
20260507183003 16 119 8.0 17.7 0.00 0.00 0.00 69 1010.0
20260507181503 16 113 6.4 17.7 0.00 0.00 0.00 67 1009.8
20260507180003 16 113 8.0 14.5 0.00 0.00 0.00 65 1009.5
20260507174503 17 124 9.7 17.7 0.00 0.00 0.00 64 1009.8
20260507173003 17 120 9.7 22.5 0.00 0.00 0.00 63 1009.5
20260507171503 17 150 8.0 17.7 0.00 0.00 0.00 63 1009.4
20260507170003 17 96 8.0 24.1 0.00 0.00 0.00 63 1009.7
20260507164503 18 113 8.0 22.5 0.00 0.00 0.00 60 1009.3
20260507163003 18 131 8.0 14.5 0.00 0.00 0.00 62 1009.3
20260507161503 19 125 8.0 25.7 0.00 0.00 0.00 57 1009.2
20260507160003 20 123 6.4 14.5 0.00 0.00 0.00 56 1009.2
20260507154503 19 114 6.4 20.9 0.00 0.00 0.00 58 1008.9
20260507153003 20 111 6.4 17.7 0.00 0.00 0.00 52 1009.2
20260507151503 20 129 6.4 17.7 0.00 0.00 0.00 55 1009.2
20260507150003 20 120 6.4 20.9 0.00 0.00 0.00 57 1009.5
20260507144503 20 123 6.4 12.9 0.00 0.00 0.00 57 1009.4
20260507143003 20 136 4.8 12.9 0.00 0.00 0.00 57 1009.8
20260507141503 19 129 6.4 17.7 0.00 0.00 0.00 56 1009.5
20260507140003 20 115 3.2 22.5 0.00 0.00 0.00 51 1009.8
20260507134503 20 140 4.8 17.7 0.00 0.00 0.00 50 1010.1